This demonstration page uses our WeatherBlox Daily Observations layout. Learn more.

Left ArrowRight Arrow

41.12389, -100.76542

Hourly Observations for August 15, 2019

Temp ( °F °C ) Dew Point ( °F °C ) Humidity (%) Winds ( mph kmh ) Pressure ( in mb ) Visibility ( mi km ) Precip ( " mm )
12:53 am 00:53 Clear 57 13.9 56 13.3 96 96 ESE 6 9 30.09 1019 10 16 0.00 0.00
1:35 am 01:35 Partly Cloudy with Mist and Fog 57 13.9 56 13.3 96 96 ESE 7 11 30.08 1019 3 5 0.00 0.00
1:49 am 01:49 Mostly Cloudy with Mist and Fog 57 14 55 13 94 94 SE 6 9 30.07 1018 2 3 0.00 0.00
1:53 am 01:53 Mostly Cloudy with Mist and Fog 56 13.3 55 12.8 97 97 ESE 6 9 30.09 1019 1 2 0.00 0.00
2:07 am 02:07 Cloudy with Mist and Fog 56 13.3 55 12.8 97 97 ESE 6 9 30.07 1018 2 3 0.00 0.00
2:15 am 02:15 Mostly Cloudy with Mist and Fog 57 13.9 55 12.8 93 93 ESE 5 7 30.06 1018 5 8 0.00 0.00
2:31 am 02:31 Mostly Clear 57 13.9 55 12.8 93 93 ESE 6 9 30.06 1018 7 11 0.00 0.00
2:53 am 02:53 Clear 56 13.3 55 12.8 97 97 SE 6 9 30.06 1018 10 16 0.00 0.00
3:53 am 03:53 Mostly Clear 58 14.4 56 13.3 93 93 SSE 7 11 30.04 1017 10 16 0.00 0.00
4:53 am 04:53 Mostly Clear 59 15 56 13.3 90 90 ESE 6 9 30.03 1017 10 16 0.00 0.00
5:53 am 05:53 Mostly Cloudy 59 15 56 13.3 90 90 SE 8 13 29.98 1015 10 16 0.00 0.00
6:43 am 06:43 Cloudy 60 15.6 57 13.9 90 90 NE 9 15 29.99 1015 10 16 0.00 0.00
6:53 am 06:53 Cloudy 61 16.1 57 13.9 87 87 NE 16 26 30.02 1017 10 16 0.00 0.00
7:09 am 07:09 Cloudy with Nearby Thunderstorms 61 16.1 57 13.9 87 87 ENE 9 15 30.03 1017 10 16 0.00 0.00
7:21 am 07:21 Cloudy with Thunderstorms 62 16.7 58 14.4 86 86 N 18 30 30.07 1018 10 16 0.00 0.00
7:53 am 07:53 Cloudy with Nearby Thunderstorms 60 15.6 57 13.9 90 90 ENE 21 33 30.06 1018 10 16 0.15 3.81
8:04 am 08:04 Cloudy with Light Rain 60 15.6 57 13.9 90 90 ENE 17 28 30.04 1017 10 16 0.00 0.00
8:53 am 08:53 Mostly Cloudy 61 16.1 58 14.4 90 90 ESE 15 24 30.04 1017 10 16 0.00 0.00
9:53 am 09:53 Sunny 65 18.3 59 15 81 81 SE 15 24 30.00 1016 10 16 0.00 0.00
10:53 am 10:53 Sunny 68 20 60 15.6 76 76 SE 15 24 29.97 1015 10 16 0.00 0.00
11:53 am 11:53 Sunny 72 22.2 62 16.7 71 71 S 10 17 29.94 1014 10 16 0.00 0.00
1:53 pm 13:53 Mostly Cloudy 75 23.9 64 17.8 69 69 SW 9 15 29.95 1014 10 16 0.00 0.00
2:33 pm 14:33 Partly Cloudy 76 24.4 64 17.8 67 67 SSW 5 7 29.85 1011 10 16 0.00 0.00
2:53 pm 14:53 Mostly Sunny 76 24.4 63 17.2 64 64 SSW 5 7 29.95 1014 10 16 0.00 0.00
3:53 pm 15:53 Sunny 80 26.7 63 17.2 56 56 Calm 29.92 1013 10 16 0.00 0.00
4:53 pm 16:53 Sunny 80 26.7 64 17.8 58 58 Calm 29.90 1013 10 16 0.00 0.00
5:53 pm 17:53 Sunny 82 27.8 65 18.3 56 56 Calm 29.91 1013 10 16 0.00 0.00
6:53 pm 18:53 Sunny 77 25 65 18.3 66 66 E 6 9 29.89 1012 10 16 0.00 0.00
7:53 pm 19:53 Sunny 74 23.3 68 20 82 82 SE 5 7 29.90 1013 10 16 0.00 0.00
8:53 pm 20:53 Clear 70 21.1 66 18.9 87 87 SE 5 7 29.91 1013 10 16 0.00 0.00
9:53 pm 21:53 Clear 68 20 64 17.8 87 87 Calm 29.93 1014 10 16 0.00 0.00
10:53 pm 22:53 Clear 64 17.8 62 16.7 93 93 E 3 6 29.93 1014 10 16 0.00 0.00
11:53 pm 23:53 Clear 63 17.2 61 16.1 93 93 Calm 29.93 1014 10 16 0.00 0.00

Powered by AerisWeather